Printer-friendly version

IAU Minor Planet Center

Minor Planet Center

MPEC 2007-V30 : 2007 VS6

The following Minor Planet Electronic Circular may be linked-to from your own Web pages, but must not otherwise be redistributed electronically.


Read MPEC 2007-V29 Read MPEC 2007-V31


M.P.E.C. 2007-V30                                Issued 2007 Nov. 5, 16:51 UT

     The Minor Planet Electronic Circulars contain information on unusual
         minor planets and routine data on comets.  They are published
   on behalf of Commission 20 of the International Astronomical Union by the
          Minor Planet Center, Smithsonian Astrophysical Observatory,
                          Cambridge, MA 02138, U.S.A.

             Prepared using the Tamkin Foundation Computer Network

                              MPC@CFA.HARVARD.EDU
          URL http://www.cfa.harvard.edu/iau/mpc.html  ISSN 1523-6714

                                   2007 VS6

Observations:
     K07V06S* C2007 11 03.19262 01 28 52.32 +11 54 30.3          20.1 V EV030G96
     K07V06S  C2007 11 03.19971 01 28 56.13 +11 53 27.2          20.3 V EV030G96
     K07V06S  C2007 11 03.20678 01 28 59.88 +11 52 24.5          21.1 V EV030G96
     K07V06S  C2007 11 03.21393 01 29 03.66 +11 51 21.4          20.3 V EV030G96
     K07V06S  C2007 11 03.31242 01 29 54.34 +11 36 59.8          20.4 V EV030G96
     K07V06S  C2007 11 03.31312 01 29 54.70 +11 36 53.8          20.4 V EV030G96
     K07V06S  C2007 11 03.31383 01 29 55.03 +11 36 47.5          20.3 V EV030G96
     K07V06S  C2007 11 03.31455 01 29 55.46 +11 36 41.6          20.4 V EV030G96
     K07V06S  C2007 11 03.31527 01 29 55.78 +11 36 35.4          20.1 V EV030G96
     K07V06S  C2007 11 03.31597 01 29 56.14 +11 36 29.9          20.2 V EV030G96
     K07V06S  C2007 11 03.31668 01 29 56.50 +11 36 23.0          20.4 V EV030G96
     K07V06S  C2007 11 03.31741 01 29 56.90 +11 36 17.6          20.2 V EV030G96
     K07V06S  C2007 11 04.16769 01 37 07.50 +09 49 49.2          20.6 V EV030G96
     K07V06S  C2007 11 04.16822 01 37 07.75 +09 49 44.6          21.6 V EV030G96
     K07V06S  C2007 11 04.16876 01 37 07.93 +09 49 42.7          21.3 V EV030G96
     K07V06S  C2007 11 04.16929 01 37 08.15 +09 49 37.6          20.6 V EV030G96
     K07V06S  C2007 11 04.33854 01 38 10.10 +09 31 34.2          21.5 V EV030G96
     K07V06S  C2007 11 04.33907 01 38 10.32 +09 31 31.0          21.7 V EV030G96
     K07V06S  C2007 11 04.33962 01 38 10.53 +09 31 27.4          21.1 V EV030G96
     K07V06S  C2007 11 04.34015 01 38 10.68 +09 31 24.6          22.4 V EV030G96
     K07V06S tC2007 11 05.18523 01 43 26.47 +08 13 09.8                 EV030291
     K07V06S tC2007 11 05.18907 01 43 27.80 +08 12 46.0                 EV030291

Observer details:
291 LPL/Spacewatch II.  Observer T. H. Bressi.  1.8-m f/2.7 reflector + CCD.
G96 Mt. Lemmon Survey.  Observer A. Boattini.  Measurers E. C. Beshore,
    A. Boattini, G. J. Garradd, A. R. Gibbs, A. D. Grauer, R. E. Hill,
    R. A. Kowalski, S. M. Larson, R. H. McNaught.  1.5-m reflector + CCD.

Orbital elements:
2007 VS6                                                 Earth MOID = 0.0142 AU
Epoch 2007 Oct. 27.0 TT = JDT 2454400.5                 MPC
M  40.05772              (2000.0)            P               Q
n   0.71951836     Peri.   83.20129     +0.54712131     +0.83229115
a   1.2334119      Node   220.38839     -0.81203093     +0.50189663
e   0.4451865      Incl.    7.90909     -0.20313553     +0.23535340
P   1.37           H   26.3           G   0.15           U   8
Residuals in seconds of arc
071103 G96  0.9-  0.6+    071103 G96  0.0   0.1-    071104 G96  0.3-  0.2-
071103 G96  0.1-  0.2+    071103 G96  0.0   0.5+    071104 G96  0.1+  0.0
071103 G96  0.1+  0.1+    071103 G96  0.0   0.3-    071104 G96  0.3+  0.1-
071103 G96  0.4+  0.1+    071103 G96  0.4+  0.6+    071104 G96  0.3-  0.4+
071103 G96  0.1+  0.4-    071104 G96  0.7-  0.2+    071105 291  1.9-  2.6+
071103 G96  0.2+  0.3-    071104 G96  0.0   0.9-    071105 291  2.0+  2.4-
071103 G96  0.3-  0.5-    071104 G96  0.4-  0.7+
071103 G96  0.7+  0.1-    071104 G96  0.1-  1.0-

Ephemeris:
2007 VS6                 a,e,i = 1.23, 0.45, 8                   q = 0.6843
Date    TT    R. A. (2000) Decl.     Delta      r     Elong.  Phase     V
2007 11 06    01 47.35   +07 13.5    0.0696   1.059   164.0    14.9    21.5
2007 11 07    01 51.29   +06 13.7    0.0780   1.066   163.3    15.5    21.8
2007 11 08    01 54.49   +05 26.0    0.0865   1.074   162.5    16.2    22.0
2007 11 09    01 57.14   +04 47.1    0.0950   1.081   161.6    16.8    22.3
2007 11 10    01 59.39   +04 15.2    0.104    1.089   160.7    17.5    22.5
2007 11 11    02 01.32   +03 48.7    0.112    1.096   159.9    18.1    22.7
2007 11 12    02 03.02   +03 26.5    0.121    1.104   159.0    18.7    22.9
2007 11 13    02 04.53   +03 07.9    0.130    1.111   158.2    19.4    23.1
2007 11 14    02 05.88   +02 52.2    0.139    1.119   157.3    19.9    23.3
2007 11 15    02 07.12   +02 39.0    0.148    1.126   156.5    20.5    23.4
2007 11 16    02 08.25   +02 27.8    0.157    1.134   155.6    21.1    23.6

Timothy B. Spahr             (C) Copyright 2007 MPC           M.P.E.C. 2007-V30

Read MPEC 2007-V29 Read MPEC 2007-V31


Our Web policy. Index to the CBAT/MPC/ICQ pages.


Valid HTML 4.01!